Location: Sabalos
(43.2860°N, 0.1414°E)
Time: 10:08:31
(UTC+00:00)

Cosmos 1818 - Pass Details

Date: 05 July 2020
Orbit: 777 x 796 km, 65.0° (Epoch: 05 August)

Event Time Altitude Azimuth Distance (km) Brightness Sun altitude
Rises 20:45:01 0° 212° (SSW) 3,264 6.6 -9.7°
Reaches altitude 10° 20:47:25 10° 212° (SSW) 2,342 5.9 -10.1°
Maximum altitude 20:52:49 90° 115° (ESE) 797 3.6 -10.7°
Drops below altitude 10° 20:58:17 10° 34° (NE) 2,368 6.2 -11.4°
Sets 21:00:43 0° 34° (NE) 3,304 7.0 -11.7°
